Regional Weather Roundup
Issued by NWS Newport/Morehead, NC

Current Version | Previous Version | Text Only | Print | Product List | Glossary On
Versions: 1 2 3 4 5 6 7 8 9 10 11 12 13 14 15 16 17 18 19 20 21 22 23 24 25 26 27 28 29 30 31 32 33 34 35 36 37 38 39 40 41 42 43 44 45 46 47 48 49 50
000
ASUS42 KMHX 171013
RWRMHX
WEATHER ROUNDUP FOR EASTERN NORTH CAROLINA
NATIONAL WEATHER SERVICE NEWPORT/MOREHEAD CITY NC
600 AM EDT TUE OCT 17 2017

NOTE: "FAIR" INDICATES FEW OR NO CLOUDS BELOW 12,000 FEET
WITH NO SIGNIFICANT WEATHER AND/OR OBSTRUCTIONS TO VISIBILITY

NCZ015>017-031-032-045>047-102-103-171100-
NORTH COAST

CITY           SKY/WX    TMP DP  RH WIND       PRES   REMARKS
EDENTON        NOT AVBL
ELIZABETH CITY CLEAR     54  46  74 N14       30.22R
KITTY HAWK     PTSUNNY   60  42  52 N10G17    30.18R
MANTEO         MOCLDY   N/A N/A N/A NE17G24   30.20R

$$

NCZ045>047-081-094-103-104-171100-
CENTRAL COAST

CITY           SKY/WX    TMP DP  RH WIND       PRES   REMARKS
FRISCO         PTCLDY    62  47  57 NE15G28   30.15R

$$

NCZ095-097-098-100-101-171100-
SOUTHERN COAST

CITY           SKY/WX    TMP DP  RH WIND       PRES   REMARKS
BEAUFORT       PTCLDY    58  47  66 N15       30.17R
CEDAR ISLAND   NOT AVBL
JACKSONVILLE   PTCLDY    51  44  77 N12       30.20R
PINEY ISLAND     N/A    N/A N/A N/A N16G24    30.17R
WILMINGTON     CLEAR     51  43  74 N12       30.20R


$$

NCZ011>013-027>030-043-044-078>080-089-090>093-098-171100-
COASTAL PLAIN

CITY           SKY/WX    TMP DP  RH WIND       PRES   REMARKS
AHOSKIE        CLEAR     45  40  83 N5        30.26R
CLINTON        CLOUDY    49  44  82 N7        30.25R
ELIZABETHTOWN  NOT AVBL
GOLDSBORO      CLOUDY    50  40  69 N9        30.23R
GREENVILLE     CLOUDY    45  41  87 CALM      30.25R
HAVELOCK       CLEAR     54  48  80 N16       30.20
KENANSVILLE    CLOUDY    48  41  76 N7        30.23S
KINSTON        MOCLDY    47  42  83 N6        30.24R
NEW BERN       MOCLDY    51  45  79 N10G21    30.22R
RICHLANDS      CLOUDY    49  42  77 N8        30.22R
ROCKY MOUNT    CLEAR     46  41  82 N8        30.27R
WASHINGTON     CLOUDY    47  43  84 N9        30.23S
WHITEVILLE     MOCLDY    51  44  75 N7        30.21R

$$

AMZ130-135-150-152-154-156-158-170-250-252-270-ANZ085-086-088-633-658-670-171100-
MARINE OBSERVATIONS

STATION/POSITION TIME  TEMP    WIND        PRES    WAVE   SWELL
                       AIR SEA DIR/SP/G            HT/PER HT/PER
                 (UTC) (F)     (DEG/KT/KT) (MB)    (FT/S) (FT/S)
CHESAPEAKE LIGHT NOT AVBL
64 E VA BEACH    0950   61 68   10/ 25/ 29 1021.9    9/ 8   3/11
DUCK             0942   62 69   20/ 24/ 29 1022.0
2 E DUCK         1000      71                N/A     7/ 7   2/11
OREGON INLET     0942   61 69   10/ 18/ 23 1021.8
13E OREGON INLT  0948      72                N/A    10/ 8   3/11
HATTERAS CG      0942   62 70   40/ 17/ 24 1020.9
DIAMOND BUOY     0950   66 81   20/ 27/ 31 1019.3    9/ 8   3/16
CAPE LOOKOUT     1000   61      10/ 16/ 19 1020.8
BEAUFORT LAB     0942   60 73   10/ 11/ 16 1021.6
30 SE NEW RVR IN 0908   65      30/ 25/ 31 1019.5
30 SE NEW RVR IN NOT AVBL
27 SE WRIGHTSVLE 0908   65 77   60/ 23/ 31 1019.6
5 SE WRIGHTSVLE  0908   61 76   40/ 17/ 35 1021.3
225 S CAPE HAT   0950   76 80   20/ 25/ 31 1013.5    5/10   3/10
41 SE CHARLESTON 1000   69 81   30/ 25/ 33 1019.2

$$




USA.gov is the U.S. government's official web portal to all federal, state and local government web resources and services.